K5TWC Weather Reports


time (UTC)temp
C
wind
direction
speed
KPH
gust
KPH
rain 1hr
cm
rain 24hr
cm
rain mn
cm
humidity
%
barometer
mb
20260831025008 32 198 0.0 0.0 0.00 0.00 0.00 53 1014.4
20260831024519 32 198 0.0 0.0 0.00 0.00 0.00 53 1014.3
20260831024011 32 198 0.0 0.0 0.00 0.00 0.00 52 1014.3
20260831023512 32 198 0.0 1.6 0.00 0.00 0.00 52 1014.2
20260831023023 32 198 0.0 1.6 0.00 0.00 0.00 51 1014.1
20260831022514 32 198 0.0 1.6 0.00 0.00 0.00 51 1014.1
20260831022013 32 198 0.0 3.2 0.00 0.00 0.00 50 1014.0
20260831021536 32 198 0.0 3.2 0.00 0.00 0.00 49 1014.0
20260831021014 32 198 0.0 0.0 0.00 0.00 0.00 48 1013.9
20260831020517 32 198 0.0 0.0 0.00 0.00 0.00 48 1013.8
20260831020030 33 198 0.0 0.0 0.00 0.00 0.00 47 1013.8
20260831015516 33 198 0.0 0.0 0.00 0.00 0.00 47 1013.7
20260831015014 33 198 0.0 0.0 0.00 0.00 0.00 47 1013.6
20260831014520 33 198 0.0 1.6 0.00 0.00 0.00 46 1013.5
20260831014010 33 198 0.0 1.6 0.00 0.00 0.00 46 1013.4
20260831013510 33 198 0.0 1.6 0.00 0.00 0.00 46 1013.4
20260831013025 33 198 0.0 6.4 0.00 0.00 0.00 45 1013.4
20260831012510 34 198 0.0 6.4 0.00 0.00 0.00 45 1013.3
20260831012004 34 201 0.0 1.6 0.00 0.00 0.00 45 1013.3
20260831011507 34 201 0.0 1.6 0.00 0.00 0.00 45 1013.3
20260831011002 35 202 0.0 3.2 0.00 0.00 0.00 44 1013.3
20260831010503 35 202 0.0 3.2 0.00 0.00 0.00 44 1013.2
20260831010015 35 202 0.0 1.6 0.00 0.00 0.00 44 1013.2
20260831005504 35 202 0.0 3.2 0.00 0.00 0.00 43 1013.2
20260831005006 35 202 0.0 4.8 0.00 0.00 0.00 42 1013.1
20260831004512 36 204 0.0 4.8 0.00 0.00 0.00 42 1013.1
20260831004004 36 188 0.0 4.8 0.00 0.00 0.00 40 1013.1
20260831003508 36 188 0.0 1.6 0.00 0.00 0.00 40 1013.1
20260831003012 36 186 0.0 3.2 0.00 0.00 0.00 40 1013.1
20260831002505 36 185 0.0 3.2 0.00 0.00 0.00 40 1013.1
20260831002006 36 184 0.0 4.8 0.00 0.00 0.00 39 1013.1
20260831001504 36 173 0.0 4.8 0.00 0.00 0.00 39 1013.1
20260831001003 37 173 0.0 12.9 0.00 0.00 0.00 39 1013.2
20260831000503 37 193 0.0 12.9 0.00 0.00 0.00 39 1013.2
20260831000005 37 206 0.0 12.9 0.00 0.00 0.00 38 1013.3
20260830235503 37 204 0.0 11.3 0.00 0.00 0.00 38 1013.3
20260830235002 37 188 3.2 9.7 0.00 0.00 0.00 38 1013.2
20260830234510 37 150 3.2 11.3 0.00 0.00 0.00 37 1013.3
20260830234005 37 207 0.0 11.3 0.00 0.00 0.00 37 1013.3
20260830233504 37 161 1.6 12.9 0.00 0.00 0.00 37 1013.3
20260830233019 37 158 3.2 16.1 0.00 0.00 0.00 37 1013.3
20260830232504 37 183 0.0 16.1 0.00 0.00 0.00 38 1013.4
20260830232006 38 180 3.2 14.5 0.00 0.00 0.00 37 1013.4
20260830231514 38 200 1.6 14.5 0.00 0.00 0.00 36 1013.4
20260830231005 38 182 1.6 14.5 0.00 0.00 0.00 37 1013.4
20260830230507 38 173 0.0 17.7 0.00 0.00 0.00 36 1013.5
20260830230004 38 161 3.2 17.7 0.00 0.00 0.00 36 1013.5
20260830225503 38 192 4.8 12.9 0.00 0.00 0.00 35 1013.5
20260830225005 38 169 1.6 12.9 0.00 0.00 0.00 34 1013.6
20260830224503 38 208 3.2 12.9 0.00 0.00 0.00 35 1013.6
20260830224003 38 207 4.8 12.9 0.00 0.00 0.00 36 1013.5
20260830223506 38 178 0.0 17.7 0.00 0.00 0.00 35 1013.6
20260830223012 38 214 0.0 17.7 0.00 0.00 0.00 35 1013.6
20260830222506 39 169 1.6 11.3 0.00 0.00 0.00 34 1013.6
20260830222012 39 159 1.6 11.3 0.00 0.00 0.00 34 1013.6
20260830221515 39 190 1.6 16.1 0.00 0.00 0.00 34 1013.6
20260830221007 39 170 4.8 16.1 0.00 0.00 0.00 34 1013.6
20260830220507 39 147 1.6 16.1 0.00 0.00 0.00 35 1013.6
20260830220018 39 175 6.4 22.5 0.00 0.00 0.00 34 1013.6
20260830215508 39 142 1.6 22.5 0.00 0.00 0.00 34 1013.6
20260830215010 39 179 1.6 17.7 0.00 0.00 0.00 34 1013.6
20260830214517 39 221 0.0 17.7 0.00 0.00 0.00 34 1013.6
20260830214003 39 289 3.2 12.9 0.00 0.00 0.00 33 1013.8
20260830213506 39 178 3.2 17.7 0.00 0.00 0.00 34 1013.8
20260830213008 39 201 3.2 17.7 0.00 0.00 0.00 34 1013.9
20260830212504 39 159 3.2 16.1 0.00 0.00 0.00 34 1013.9
20260830212004 39 195 0.0 9.7 0.00 0.00 0.00 34 1014.0
20260830211516 38 154 3.2 12.9 0.00 0.00 0.00 35 1014.0
20260830211008 38 159 0.0 14.5 0.00 0.00 0.00 34 1014.1
20260830210508 38 141 4.8 16.1 0.00 0.00 0.00 35 1014.2
20260830210028 38 233 1.6 16.1 0.00 0.00 0.00 35 1014.2
20260830205513 38 146 6.4 22.5 0.00 0.00 0.00 34 1014.2
20260830205006 38 169 8.0 22.5 0.00 0.00 0.00 35 1014.3
20260830204527 38 161 3.2 14.5 0.00 0.00 0.00 36 1014.3
20260830204008 38 190 4.8 16.1 0.00 0.00 0.00 37 1014.3
20260830203508 38 135 4.8 17.7 0.00 0.00 0.00 38 1014.4
20260830203025 38 180 1.6 17.7 0.00 0.00 0.00 38 1014.5
20260830202504 38 162 8.0 19.3 0.00 0.00 0.00 37 1014.5
20260830202004 38 140 8.0 20.9 0.00 0.00 0.00 37 1014.7
20260830201508 38 155 8.0 20.9 0.00 0.00 0.00 37 1014.7
20260830201004 38 154 8.0 20.9 0.00 0.00 0.00 37 1014.9
20260830200504 38 157 3.2 14.5 0.00 0.00 0.00 37 1015.1
20260830200015 38 163 4.8 14.5 0.00 0.00 0.00 37 1015.2
20260830195506 38 156 1.6 16.1 0.00 0.00 0.00 38 1015.2
20260830195008 38 177 0.0 19.3 0.00 0.00 0.00 39 1015.3
20260830194523 38 163 9.7 25.7 0.00 0.00 0.00 39 1015.4
20260830194007 37 146 8.0 25.7 0.00 0.00 0.00 39 1015.4
20260830193510 38 118 8.0 22.5 0.00 0.00 0.00 39 1015.4
20260830193018 38 107 6.4 17.7 0.00 0.00 0.00 40 1015.4
20260830192508 37 166 4.8 20.9 0.00 0.00 0.00 40 1015.5
20260830192008 37 157 6.4 24.1 0.00 0.00 0.00 40 1015.5
20260830191524 37 205 3.2 24.1 0.00 0.00 0.00 41 1015.6
20260830191003 37 150 6.4 22.5 0.00 0.00 0.00 41 1015.7
20260830190503 37 190 6.4 22.5 0.00 0.00 0.00 41 1015.7
20260830190011 37 166 6.4 22.5 0.00 0.00 0.00 42 1015.7
20260830185514 37 130 6.4 29.0 0.00 0.00 0.00 43 1015.8
20260830185008 37 148 3.2 29.0 0.00 0.00 0.00 43 1015.8
20260830184518 37 118 8.0 24.1 0.00 0.00 0.00 43 1015.8
20260830184007 37 169 8.0 25.7 0.00 0.00 0.00 43 1015.8
20260830183510 37 159 4.8 25.7 0.00 0.00 0.00 43 1015.9
20260830183023 37 138 6.4 19.3 0.00 0.00 0.00 42 1015.9
20260830182512 37 164 6.4 20.9 0.00 0.00 0.00 44 1016.0
20260830182011 37 149 6.4 20.9 0.00 0.00 0.00 43 1016.1
20260830181524 37 147 6.4 16.1 0.00 0.00 0.00 44 1016.2
20260830181009 37 179 1.6 14.5 0.00 0.00 0.00 43 1016.2
20260830180512 37 193 1.6 14.5 0.00 0.00 0.00 44 1016.3
20260830180025 37 198 4.8 17.7 0.00 0.00 0.00 46 1016.4
20260830175505 37 159 6.4 17.7 0.00 0.00 0.00 45 1016.5
20260830175003 37 155 4.8 19.3 0.00 0.00 0.00 44 1016.5
20260830174514 37 200 0.0 19.3 0.00 0.00 0.00 46 1016.6
20260830174004 37 178 3.2 16.1 0.00 0.00 0.00 46 1016.6
20260830173510 37 198 1.6 12.9 0.00 0.00 0.00 45 1016.7
20260830173018 37 156 6.4 12.9 0.00 0.00 0.00 46 1016.8
20260830172514 37 198 1.6 16.1 0.00 0.00 0.00 47 1016.9
20260830172011 37 177 1.6 19.3 0.00 0.00 0.00 48 1017.0
20260830171526 37 194 1.6 19.3 0.00 0.00 0.00 46 1017.1
20260830171012 37 163 3.2 14.5 0.00 0.00 0.00 46 1017.1
20260830170510 37 204 1.6 12.9 0.00 0.00 0.00 47 1017.2
20260830170025 36 246 1.6 14.5 0.00 0.00 0.00 47 1017.2
20260830165510 36 176 4.8 14.5 0.00 0.00 0.00 47 1017.3
20260830165010 36 151 4.8 14.5 0.00 0.00 0.00 46 1017.4
20260830164549 37 200 0.0 8.0 0.00 0.00 0.00 47 1017.4
20260830164007 36 244 0.0 8.0 0.00 0.00 0.00 48 1017.4
20260830163504 36 202 0.0 17.7 0.00 0.00 0.00 48 1017.4
20260830163018 36 143 0.0 17.7 0.00 0.00 0.00 47 1017.5
20260830162508 36 236 1.6 16.1 0.00 0.00 0.00 48 1017.5
20260830162008 36 153 0.0 16.1 0.00 0.00 0.00 49 1017.6
20260830161518 36 205 0.0 11.3 0.00 0.00 0.00 49 1017.6
20260830161011 36 198 1.6 11.3 0.00 0.00 0.00 50 1017.6
20260830160511 35 198 1.6 12.9 0.00 0.00 0.00 51 1017.5
20260830160027 35 252 1.6 12.9 0.00 0.00 0.00 52 1017.5
20260830155503 35 257 1.6 11.3 0.00 0.00 0.00 52 1017.5
20260830155003 35 190 0.0 12.9 0.00 0.00 0.00 54 1017.4
20260830154507 35 172 1.6 12.9 0.00 0.00 0.00 56 1017.5
20260830154004 35 254 4.8 12.9 0.00 0.00 0.00 53 1017.5
20260830153504 35 230 0.0 8.0 0.00 0.00 0.00 55 1017.5
20260830153011 35 209 0.0 12.9 0.00 0.00 0.00 56 1017.5
20260830152505 34 203 0.0 12.9 0.00 0.00 0.00 57 1017.6
20260830152007 34 252 0.0 6.4 0.00 0.00 0.00 57 1017.6
20260830151516 33 178 0.0 6.4 0.00 0.00 0.00 58 1017.6
20260830151008 33 223 0.0 8.0 0.00 0.00 0.00 59 1017.7
20260830150511 33 184 0.0 8.0 0.00 0.00 0.00 59 1017.6
20260830150023 33 220 0.0 4.8 0.00 0.00 0.00 60 1017.6
20260830145514 33 209 0.0 4.8 0.00 0.00 0.00 61 1017.6
20260830145011 32 208 0.0 9.7 0.00 0.00 0.00 61 1017.7
20260830144528 32 200 1.6 9.7 0.00 0.00 0.00 61 1017.6
20260830144003 32 185 1.6 9.7 0.00 0.00 0.00 61 1017.6
20260830143504 32 170 1.6 8.0 0.00 0.00 0.00 62 1017.5
20260830143008 32 198 0.0 6.4 0.00 0.00 0.00 62 1017.5
20260830142504 32 178 0.0 8.0 0.00 0.00 0.00 62 1017.7
20260830142004 32 152 0.0 6.4 0.00 0.00 0.00 63 1017.8
20260830141531 32 219 0.0 3.2 0.00 0.00 0.00 64 1017.8
20260830141005 32 220 0.0 3.2 0.00 0.00 0.00 65 1017.7
20260830140506 31 200 0.0 3.2 0.00 0.00 0.00 64 1017.7
20260830140020 31 219 0.0 8.0 0.00 0.00 0.00 65 1017.6
20260830135508 31 234 0.0 8.0 0.00 0.00 0.00 66 1017.6
20260830135012 31 203 0.0 3.2 0.00 0.00 0.00 67 1017.5
20260830134535 31 205 0.0 4.8 0.00 0.00 0.00 67 1017.6
20260830134017 30 205 0.0 6.4 0.00 0.00 0.00 68 1017.6
20260830133513 30 212 0.0 9.7 0.00 0.00 0.00 69 1017.6
20260830133029 30 200 0.0 9.7 0.00 0.00 0.00 69 1017.4
20260830132506 29 200 0.0 4.8 0.00 0.00 0.00 70 1017.4
20260830132005 29 215 0.0 8.0 0.00 0.00 0.00 70 1017.3
20260830131510 28 211 0.0 8.0 0.00 0.00 0.00 71 1017.3
20260830131009 28 201 0.0 4.8 0.00 0.00 0.00 72 1017.3
20260830130507 28 207 0.0 4.8 0.00 0.00 0.00 72 1017.2
20260830130017 28 206 0.0 4.8 0.00 0.00 0.00 73 1017.2
20260830125508 27 210 0.0 4.8 0.00 0.00 0.00 74 1017.1
20260830125008 27 209 0.0 4.8 0.00 0.00 0.00 75 1017.1
20260830124520 27 193 0.0 4.8 0.00 0.00 0.00 75 1017.0
20260830124011 27 198 0.0 4.8 0.00 0.00 0.00 76 1017.0
20260830123510 26 206 0.0 6.4 0.00 0.00 0.00 76 1016.8
20260830123028 26 193 0.0 6.4 0.00 0.00 0.00 76 1016.8
20260830122514 26 197 0.0 6.4 0.00 0.00 0.00 76 1016.8
20260830122013 26 192 0.0 6.4 0.00 0.00 0.00 76 1016.7
20260830121534 26 202 0.0 4.8 0.00 0.00 0.00 76 1016.6
20260830121003 26 202 0.0 1.6 0.00 0.00 0.00 75 1016.6
20260830120504 26 202 0.0 3.2 0.00 0.00 0.00 75 1016.5
20260830120012 26 202 0.0 3.2 0.00 0.00 0.00 75 1016.5
20260830115508 26 200 0.0 0.0 0.00 0.00 0.00 74 1016.5
20260830115008 26 200 0.0 0.0 0.00 0.00 0.00 74 1016.4
20260830114518 26 200 0.0 1.6 0.00 0.00 0.00 74 1016.3
20260830114010 26 200 0.0 1.6 0.00 0.00 0.00 73 1016.3
20260830113509 26 201 0.0 3.2 0.00 0.00 0.00 73 1016.2
20260830113024 26 201 0.0 3.2 0.00 0.00 0.00 72 1016.2
20260830112515 26 201 0.0 1.6 0.00 0.00 0.00 72 1016.2
20260830112013 26 201 0.0 0.0 0.00 0.00 0.00 71 1016.2
20260830111528 26 201 0.0 0.0 0.00 0.00 0.00 70 1016.1
20260830111013 26 201 0.0 1.6 0.00 0.00 0.00 70 1016.1
20260830110515 27 201 0.0 1.6 0.00 0.00 0.00 69 1016.0
20260830110030 27 201 0.0 1.6 0.00 0.00 0.00 69 1015.9
20260830105505 27 201 0.0 4.8 0.00 0.00 0.00 69 1015.9
20260830105008 27 202 0.0 4.8 0.00 0.00 0.00 68 1015.8
20260830104516 27 211 0.0 4.8 0.00 0.00 0.00 68 1015.8
20260830104007 27 182 0.0 4.8 0.00 0.00 0.00 67 1015.8
20260830103508 27 182 0.0 8.0 0.00 0.00 0.00 67 1015.8
20260830103020 27 174 0.0 8.0 0.00 0.00 0.00 66 1015.8
20260830102509 27 176 0.0 4.8 0.00 0.00 0.00 66 1015.8
20260830102012 27 180 0.0 3.2 0.00 0.00 0.00 66 1015.7
20260830101523 27 178 0.0 3.2 0.00 0.00 0.00 66 1015.7
20260830101012 27 178 0.0 4.8 0.00 0.00 0.00 65 1015.6
20260830100514 27 177 0.0 4.8 0.00 0.00 0.00 65 1015.7
20260830100027 27 174 0.0 1.6 0.00 0.00 0.00 65 1015.6
20260830095514 27 174 0.0 3.2 0.00 0.00 0.00 64 1015.6
20260830095016 27 174 0.0 6.4 0.00 0.00 0.00 64 1015.6
20260830094523 27 175 0.0 6.4 0.00 0.00 0.00 63 1015.7
20260830094006 27 177 0.0 4.8 0.00 0.00 0.00 63 1015.6
20260830093507 27 175 0.0 6.4 0.00 0.00 0.00 63 1015.7
20260830093014 27 177 0.0 6.4 0.00 0.00 0.00 63 1015.6
20260830092510 28 190 0.0 3.2 0.00 0.00 0.00 62 1015.6
20260830092013 28 192 0.0 9.7 0.00 0.00 0.00 62 1015.7
20260830091523 28 175 0.0 9.7 0.00 0.00 0.00 62 1015.7
20260830091012 28 178 0.0 4.8 0.00 0.00 0.00 62 1015.8
20260830090511 28 176 0.0 8.0 0.00 0.00 0.00 61 1015.8
20260830090027 28 174 0.0 9.7 0.00 0.00 0.00 60 1015.8
20260830085515 28 170 3.2 9.7 0.00 0.00 0.00 59 1015.7
20260830085012 28 161 1.6 12.9 0.00 0.00 0.00 60 1015.7
20260830084532 28 147 0.0 14.5 0.00 0.00 0.00 59 1015.7
20260830084017 28 185 3.2 14.5 0.00 0.00 0.00 59 1015.9
20260830083518 28 165 1.6 14.5 0.00 0.00 0.00 58 1015.9
20260830083014 28 167 1.6 14.5 0.00 0.00 0.00 58 1016.0
20260830082508 28 181 0.0 12.9 0.00 0.00 0.00 57 1015.9
20260830082009 28 146 0.0 12.9 0.00 0.00 0.00 57 1015.7
20260830081533 28 142 0.0 11.3 0.00 0.00 0.00 57 1015.7
20260830081010 28 142 1.6 11.3 0.00 0.00 0.00 56 1015.6
20260830080510 28 153 0.0 9.7 0.00 0.00 0.00 56 1015.6
20260830080024 29 155 0.0 8.0 0.00 0.00 0.00 56 1015.6
20260830075512 29 157 0.0 8.0 0.00 0.00 0.00 55 1015.6
20260830075013 29 155 1.6 11.3 0.00 0.00 0.00 55 1015.8
20260830074530 29 130 3.2 12.9 0.00 0.00 0.00 55 1015.9
20260830074014 29 162 3.2 12.9 0.00 0.00 0.00 54 1015.9
20260830073513 29 154 1.6 14.5 0.00 0.00 0.00 55 1015.9
20260830073031 29 157 1.6 14.5 0.00 0.00 0.00 55 1015.9
20260830072518 30 172 3.2 14.5 0.00 0.00 0.00 55 1015.8
20260830072007 30 168 1.6 16.1 0.00 0.00 0.00 55 1015.8
20260830071516 30 182 6.4 19.3 0.00 0.00 0.00 55 1015.9
20260830071008 30 128 6.4 19.3 0.00 0.00 0.00 55 1015.9
20260830070511 30 152 3.2 14.5 0.00 0.00 0.00 55 1016.0
20260830070031 30 171 4.8 12.9 0.00 0.00 0.00 54 1015.9
20260830065512 30 154 1.6 14.5 0.00 0.00 0.00 54 1015.9
20260830065014 30 170 3.2 14.5 0.00 0.00 0.00 54 1016.0
20260830064527 30 151 3.2 12.9 0.00 0.00 0.00 53 1016.0
20260830064016 30 173 0.0 11.3 0.00 0.00 0.00 52 1016.0
20260830063518 30 169 4.8 14.5 0.00 0.00 0.00 52 1015.9
20260830063012 30 135 1.6 14.5 0.00 0.00 0.00 52 1015.9
20260830062504 30 144 1.6 14.5 0.00 0.00 0.00 52 1015.9
20260830062006 30 190 3.2 14.5 0.00 0.00 0.00 52 1016.0
20260830061509 30 146 3.2 14.5 0.00 0.00 0.00 52 1015.9
20260830061005 30 161 3.2 14.5 0.00 0.00 0.00 52 1015.9
20260830060507 30 156 1.6 12.9 0.00 0.00 0.00 53 1015.8
20260830060021 30 159 3.2 12.9 0.00 0.00 0.00 53 1015.8
20260830055509 30 167 1.6 12.9 0.00 0.00 0.00 53 1015.9
20260830055008 30 153 1.6 11.3 0.00 0.00 0.00 53 1015.9
20260830054531 30 143 1.6 11.3 0.00 0.00 0.00 53 1015.9
20260830054017 30 161 0.0 8.0 0.00 0.00 0.00 53 1016.0
20260830053513 30 138 0.0 12.9 0.00 0.00 0.00 53 1016.0
20260830053027 30 131 0.0 12.9 0.00 0.00 0.00 54 1016.0
20260830052515 30 130 3.2 12.9 0.00 0.00 0.00 53 1016.1
20260830052014 30 155 0.0 9.7 0.00 0.00 0.00 54 1016.1
20260830051508 30 142 3.2 9.7 0.00 0.00 0.00 54 1016.1
20260830051004 30 134 1.6 8.0 0.00 0.00 0.00 55 1016.0
20260830050504 30 136 3.2 8.0 0.00 0.00 0.00 55 1015.9
20260830050014 30 138 1.6 11.3 0.00 0.00 0.00 55 1015.7
20260830045508 30 140 3.2 11.3 0.00 0.00 0.00 55 1015.7
20260830045008 30 109 0.0 12.9 0.00 0.00 0.00 55 1015.7
20260830044518 30 126 4.8 12.9 0.00 0.00 0.00 55 1015.7
20260830044010 31 115 3.2 11.3 0.00 0.00 0.00 56 1015.6
20260830043512 31 195 0.0 1.6 0.00 0.00 0.00 56 1015.6
20260830043026 31 195 0.0 1.6 0.00 0.00 0.00 54 1015.5
20260830042515 31 195 0.0 3.2 0.00 0.00 0.00 54 1015.5
20260830042014 31 195 0.0 3.2 0.00 0.00 0.00 53 1015.5
20260830041536 31 195 0.0 1.6 0.00 0.00 0.00 53 1015.5
20260830041015 31 195 0.0 0.0 0.00 0.00 0.00 52 1015.5
20260830040518 31 195 0.0 0.0 0.00 0.00 0.00 51 1015.4
20260830040012 31 195 0.0 1.6 0.00 0.00 0.00 51 1015.4
20260830035506 31 195 0.0 1.6 0.00 0.00 0.00 51 1015.3
20260830035006 31 195 0.0 1.6 0.00 0.00 0.00 51 1015.3
20260830034519 31 195 0.0 3.2 0.00 0.00 0.00 51 1015.3
20260830034010 31 195 0.0 3.2 0.00 0.00 0.00 51 1015.2
20260830033507 32 195 0.0 1.6 0.00 0.00 0.00 51 1015.2
20260830033020 32 195 0.0 1.6 0.00 0.00 0.00 51 1015.2
20260830032511 32 195 0.0 1.6 0.00 0.00 0.00 52 1015.1
20260830032013 32 195 0.0 1.6 0.00 0.00 0.00 53 1015.1
20260830031528 32 195 0.0 4.8 0.00 0.00 0.00 55 1015.1
20260830031017 32 195 0.0 4.8 0.00 0.00 0.00 56 1015.0
20260830030517 32 196 0.0 4.8 0.00 0.00 0.00 58 1015.0
20260830030039 32 196 0.0 4.8 0.00 0.00 0.00 61 1015.0
20260830025514 32 197 0.0 3.2 0.00 0.00 0.00 61 1014.9